When you browse on this site, cookies collect data to enhance your experience and personalize the content and advertising you see.
Visit our Privacy Policy to learn more. By continuing to use the site, you agree to this use of cookies and data.
  • In Romania
  • List of Countries
  • For 7 days
  • Water Temperature
  • Weather Map
  • Weather Widgets
  • user-avatar
    Login

    Hourly Weather Malaga

    Today, 20 February, Thursday

    Time Temperature Precipitation Wind Pressure Humidity
    00:00 +12°C° 0 mm 4 mps 767 mmHg 90%
    01:00 +12°C° 0 mm 4 mps 767 mmHg 90%
    02:00 +12°C° 0 mm 3 mps 766 mmHg 89%
    03:00 +12°C° 0 mm 3 mps 766 mmHg 89%
    04:00 +12°C° 0 mm 3 mps 766 mmHg 89%
    05:00 +12°C° 0 mm 3 mps 766 mmHg 89%
    06:00 +11°C° 0 mm 3 mps 765 mmHg 89%
    07:00 +13°C° 0 mm 2 mps 765 mmHg 84%
    08:00 +14°C° 0 mm 2 mps 765 mmHg 78%
    09:00 +15°C° 0 mm 2 mps 765 mmHg 72%
    10:00 +16°C° 0 mm 2 mps 765 mmHg 68%
    11:00 +17°C° 0 mm 3 mps 765 mmHg 64%
    12:00 +18°C° 0 mm 3 mps 764 mmHg 60%
    13:00 +18°C° 0 mm 3 mps 764 mmHg 60%
    14:00 +18°C° 0 mm 3 mps 764 mmHg 60%
    15:00 +18°C° 0 mm 3 mps 763 mmHg 61%
    16:00 +17°C° 0 mm 3 mps 763 mmHg 66%
    17:00 +16°C° 0 mm 2 mps 763 mmHg 71%
    18:00 +15°C° 0 mm 2 mps 764 mmHg 76%
    19:00 +14°C° 0 mm 2 mps 764 mmHg 78%
    20:00 +14°C° 0 mm 1 mps 765 mmHg 81%
    21:00 +13°C° 0 mm 1 mps 765 mmHg 83%
    22:00 +13°C° 0 mm 2 mps 765 mmHg 84%
    23:00 +13°C° 0 mm 2 mps 766 mmHg 85%

    Tomorrow, 21 February, Friday

    Time Temperature Precipitation Wind Pressure Humidity
    00:00 +13°C° 0 mm 2 mps 766 mmHg 86%
    01:00 +13°C° 0 mm 2 mps 766 mmHg 83%
    02:00 +13°C° 0 mm 2 mps 765 mmHg 81%
    03:00 +13°C° 0 mm 1 mps 765 mmHg 78%
    04:00 +13°C° 0 mm 1 mps 765 mmHg 78%
    05:00 +13°C° 0 mm 1 mps 766 mmHg 77%
    06:00 +12°C° 0 mm 1 mps 766 mmHg 77%
    13:00 +19°C° 0 mm 4 mps 767 mmHg 59%
    14:00 +19°C° 0 mm 4 mps 767 mmHg 57%
    15:00 +19°C° 0 mm 4 mps 767 mmHg 56%
    16:00 +17°C° 0 mm 3 mps 767 mmHg 62%
    17:00 +16°C° 0 mm 3 mps 767 mmHg 69%
    18:00 +14°C° 0 mm 3 mps 767 mmHg 76%
    19:00 +14°C° 0 mm 2 mps 768 mmHg 78%
    20:00 +14°C° 0 mm 2 mps 768 mmHg 80%
    21:00 +13°C° 0 mm 2 mps 768 mmHg 83%
    22:00 +13°C° 0 mm 2 mps 769 mmHg 83%
    23:00 +13°C° 0 mm 2 mps 769 mmHg 83%

    Day after tomorrow, 22 February, Saturday

    Time Temperature Precipitation Wind Pressure Humidity
    00:00 +13°C° 0 mm 2 mps 769 mmHg 84%
    01:00 +12°C° 0 mm 2 mps 769 mmHg 83%
    02:00 +12°C° 0 mm 2 mps 769 mmHg 82%
    03:00 +12°C° 0 mm 2 mps 769 mmHg 82%
    04:00 +12°C° 0 mm 2 mps 769 mmHg 82%
    05:00 +12°C° 0 mm 2 mps 769 mmHg 82%
    06:00 +12°C° 0 mm 2 mps 769 mmHg 81%
    07:00 +13°C° 0 mm 2 mps 769 mmHg 79%
    08:00 +14°C° 0 mm 2 mps 770 mmHg 76%
    09:00 +14°C° 0 mm 3 mps 770 mmHg 73%
    10:00 +17°C° 0 mm 3 mps 770 mmHg 67%
    11:00 +18°C° 0 mm 3 mps 770 mmHg 61%
    12:00 +19°C° 0 mm 4 mps 770 mmHg 55%
    13:00 +19°C° 0 mm 4 mps 769 mmHg 52%
    14:00 +20°C° 0 mm 3 mps 769 mmHg 49%
    15:00 +20°C° 0 mm 3 mps 768 mmHg 45%
    16:00 +18°C° 0 mm 3 mps 768 mmHg 53%
    17:00 +17°C° 0 mm 3 mps 768 mmHg 60%
    18:00 +14°C° 0 mm 3 mps 769 mmHg 67%
    19:00 +14°C° 0 mm 3 mps 769 mmHg 70%
    20:00 +14°C° 0 mm 2 mps 769 mmHg 72%
    21:00 +13°C° 0 mm 2 mps 770 mmHg 74%
    22:00 +13°C° 0 mm 2 mps 770 mmHg 76%
    23:00 +13°C° 0 mm 2 mps 770 mmHg 78%

    23 February, Sunday

    Time Temperature Precipitation Wind Pressure Humidity
    00:00 +12°C° 0 mm 2 mps 770 mmHg 79%
    01:00 +12°C° 0 mm 2 mps 770 mmHg 79%
    02:00 +12°C° 0 mm 2 mps 770 mmHg 78%
    03:00 +12°C° 0 mm 2 mps 770 mmHg 77%
    04:00 +12°C° 0 mm 2 mps 770 mmHg 76%
    05:00 +12°C° 0 mm 2 mps 770 mmHg 74%
    06:00 +12°C° 0 mm 2 mps 770 mmHg 72%
    07:00 +13°C° 0 mm 2 mps 770 mmHg 68%
    08:00 +15°C° 0 mm 2 mps 770 mmHg 65%
    09:00 +16°C° 0 mm 2 mps 770 mmHg 61%
    10:00 +17°C° 0 mm 2 mps 770 mmHg 56%
    11:00 +19°C° 0 mm 3 mps 770 mmHg 51%
    12:00 +20°C° 0 mm 4 mps 770 mmHg 46%
    13:00 +20°C° 0 mm 4 mps 769 mmHg 46%
    14:00 +20°C° 0 mm 4 mps 769 mmHg 46%
    15:00 +20°C° 0 mm 4 mps 768 mmHg 46%
    16:00 +19°C° 0 mm 3 mps 768 mmHg 53%
    17:00 +17°C° 0 mm 3 mps 768 mmHg 59%
    18:00 +15°C° 0 mm 2 mps 768 mmHg 66%
    19:00 +15°C° 0 mm 2 mps 769 mmHg 64%
    20:00 +14°C° 0 mm 2 mps 769 mmHg 63%
    21:00 +14°C° 0 mm 1 mps 769 mmHg 62%
    22:00 +14°C° 0 mm 1 mps 769 mmHg 63%
    23:00 +13°C° 0 mm 1 mps 769 mmHg 64%

    24 February, Monday

    Time Temperature Precipitation Wind Pressure Humidity
    00:00 +13°C° 0 mm 1 mps 769 mmHg 65%
    01:00 +13°C° 0 mm 1 mps 769 mmHg 64%
    02:00 +13°C° 0 mm 1 mps 769 mmHg 63%
    03:00 +13°C° 0 mm 1 mps 769 mmHg 62%
    04:00 +13°C° 0 mm 1 mps 769 mmHg 60%
    05:00 +13°C° 0 mm 1 mps 769 mmHg 58%
    06:00 +13°C° 0 mm 1 mps 769 mmHg 56%
    07:00 +14°C° 0 mm 1 mps 769 mmHg 55%
    08:00 +15°C° 0 mm 1 mps 769 mmHg 54%
    09:00 +18°C° 0 mm 1 mps 769 mmHg 53%
    10:00 +19°C° 0 mm 1 mps 769 mmHg 50%
    11:00 +20°C° 0 mm 1 mps 768 mmHg 48%
    12:00 +21°C° 0 mm 1 mps 768 mmHg 46%
    13:00 +21°C° 0 mm 2 mps 767 mmHg 46%
    14:00 +21°C° 0 mm 2 mps 767 mmHg 46%
    15:00 +21°C° 0 mm 2 mps 766 mmHg 46%
    16:00 +21°C° 0 mm 1 mps 766 mmHg 52%
    17:00 +19°C° 0 mm 1 mps 766 mmHg 59%
    18:00 +16°C° 0 mm 1 mps 766 mmHg 65%
    19:00 +16°C° 0 mm 1 mps 766 mmHg 67%
    20:00 +15°C° 0 mm 1 mps 767 mmHg 69%
    21:00 +14°C° 0 mm 0 mps 767 mmHg 70%
    22:00 +13°C° 0 mm 0 mps 767 mmHg 70%
    23:00 +13°C° 0 mm 0 mps 767 mmHg 70%

    25 February, Tuesday

    Time Temperature Precipitation Wind Pressure Humidity
    00:00 +14°C° 0 mm 1 mps 767 mmHg 70%
    01:00 +14°C° 0 mm 1 mps 767 mmHg 67%
    02:00 +14°C° 0 mm 1 mps 766 mmHg 64%
    03:00 +14°C° 0 mm 1 mps 766 mmHg 62%
    04:00 +14°C° 0 mm 2 mps 766 mmHg 60%
    05:00 +14°C° 0 mm 2 mps 766 mmHg 59%
    06:00 +14°C° 0 mm 2 mps 766 mmHg 57%
    07:00 +15°C° 0 mm 2 mps 766 mmHg 56%
    08:00 +17°C° 0 mm 2 mps 767 mmHg 54%
    09:00 +18°C° 0 mm 2 mps 767 mmHg 53%
    10:00 +20°C° 0 mm 2 mps 767 mmHg 48%
    11:00 +21°C° 0 mm 3 mps 766 mmHg 43%
    12:00 +24°C° 0 mm 3 mps 766 mmHg 38%
    13:00 +23°C° 0 mm 4 mps 766 mmHg 37%
    14:00 +23°C° 0 mm 4 mps 765 mmHg 37%
    15:00 +23°C° 0 mm 4 mps 764 mmHg 37%
    16:00 +22°C° 0 mm 4 mps 764 mmHg 43%
    17:00 +20°C° 0 mm 4 mps 764 mmHg 50%
    18:00 +19°C° 0 mm 4 mps 764 mmHg 57%
    19:00 +18°C° 0 mm 4 mps 765 mmHg 59%
    20:00 +17°C° 0 mm 4 mps 765 mmHg 60%
    21:00 +16°C° 0 mm 3 mps 765 mmHg 62%
    22:00 +16°C° 0 mm 3 mps 765 mmHg 63%
    23:00 +14°C° 0 mm 4 mps 765 mmHg 63%
    Show more